User: anonymous   Login
Location: ???????
(55.4362°N, 38.1183°E)
Time: 15:26:59
(UTC+00:00)
Language:

Cosmos 1354 Rocket - Orbit

View from above orbital plane
View from above orbital plane
View from above satellite
View from above satellite

Ground track
Ground track

The orbit data is extracted from the following two-line orbital elements,

1 13149U 82037B   21262.76817387  .00000045  00000-0  24900-4 0  9996
2 13149  74.0397 281.8080 0011807 105.7661 254.4794 14.35410249 60475
Epoch (UTC): 19 September 2021 18:26:10
Eccentricity: 0.0011807
inclination: 74.0397°
perigee height: 765 km
apogee height: 782 km
right ascension of ascending node: 281.8080°
argument of perigee: 105.7661°
revolutions per day: 14.35410249
mean anomaly at epoch: 254.4794°
orbit number at epoch: 6047

The dashed part of the orbit path shows where the satellite is in the earth's shadow,  

DLR